Location: Boncourt
(49.6160°N, 3.9448°E)
Time: 22:43:33
(UTC+00:00)

Cosmos 2184 Rocket - Pass Details

Date: 09 February 2023
Orbit: 958 x 1002 km, 82.9° (Epoch: 31 March)

Event Time Altitude Azimuth Distance (km) Brightness Sun altitude
Rises 18:56:05 0° 353° (N) 3,704 7.1 -20.3°
Reaches altitude 10° 18:58:44 10° 359° (N) 2,744 6.4 -20.8°
Maximum altitude 19:04:49 49° 74° (ENE) 1,245 4.1 -21.8°
Enters shadow 19:06:19 41° 113° (ESE) 1,383 4.3 -22.0°
